TimeEDT,TemperatureF,Dew PointF,Humidity,Sea Level PressureIn,VisibilityMPH,Wind Direction,Wind SpeedMPH,Gust SpeedMPH,PrecipitationIn,Events,Conditions,WindDirDegrees,DateUTC
12:11 AM,66.2,62.6,88,29.81,10.0,South,8.1,-,N/A,,Scattered Clouds,190,2013-11-01 04:11:00
12:54 AM,66.9,62.1,84,29.79,10.0,SSW,10.4,19.6,N/A,,Clear,200,2013-11-01 04:54:00
1:54 AM,68.0,61.0,78,29.75,10.0,SSW,10.4,19.6,N/A,,Clear,200,2013-11-01 05:54:00
2:54 AM,68.0,61.0,78,29.73,10.0,SSW,8.1,16.1,N/A,,Clear,200,2013-11-01 06:54:00
8:54 AM,72.0,62.1,71,29.63,10.0,SSW,17.3,33.4,0.00,Rain,Light Rain,210,2013-11-01 12:54:00
9:09 AM,71.6,62.6,73,29.63,6.0,SW,17.3,33.4,0.00,Rain,Light Rain,220,2013-11-01 13:09:00
9:41 AM,66.2,62.6,88,29.69,1.8,West,26.5,40.3,0.04,Rain,Rain,260,2013-11-01 13:41:00
9:52 AM,62.6,57.2,82,29.67,3.0,West,19.6,28.8,0.13,Rain,Light Rain,260,2013-11-01 13:52:00
9:54 AM,63.0,57.9,84,29.67,5.0,West,20.7,26.5,0.13,Rain,Light Rain,260,2013-11-01 13:54:00
10:54 AM,64.0,57.9,80,29.67,10.0,SW,9.2,-,0.00,,Overcast,220,2013-11-01 14:54:00
11:54 AM,64.0,57.0,78,29.66,9.0,SW,9.2,-,0.00,Rain,Light Rain,230,2013-11-01 15:54:00
12:54 PM,66.0,57.9,75,29.65,10.0,SW,8.1,-,0.00,,Overcast,230,2013-11-01 16:54:00
1:54 PM,66.9,57.0,70,29.63,10.0,SW,10.4,-,N/A,,Overcast,220,2013-11-01 17:54:00
2:54 PM,69.1,55.9,63,29.62,10.0,WSW,10.4,18.4,N/A,,Clear,240,2013-11-01 18:54:00
3:54 PM,69.1,54.0,58,29.60,10.0,West,11.5,17.3,N/A,,Clear,260,2013-11-01 19:54:00
4:54 PM,70.0,54.0,57,29.62,10.0,SSW,9.2,19.6,N/A,,Clear,210,2013-11-01 20:54:00
5:54 PM,66.9,57.0,70,29.64,10.0,SSW,4.6,-,N/A,,Clear,210,2013-11-01 21:54:00
6:54 PM,64.9,57.9,78,29.65,10.0,SSW,3.5,-,N/A,,Clear,210,2013-11-01 22:54:00
7:54 PM,64.0,59.0,84,29.68,10.0,Calm,Calm,-,N/A,,Clear,0,2013-11-01 23:54:00
8:54 PM,59.0,57.0,93,29.68,10.0,Calm,Calm,-,N/A,,Clear,0,2013-11-02 00:54:00
9:22 PM,57.2,57.2,100,29.69,1.2,Calm,Calm,-,N/A,,Clear,0,2013-11-02 01:22:00
9:30 PM,57.2,57.2,100,29.69,8.0,Calm,Calm,-,N/A,,Partly Cloudy,0,2013-11-02 01:30:00
9:54 PM,55.0,54.0,96,29.70,0.5,Calm,Calm,-,N/A,Fog,Fog,0,2013-11-02 01:54:00
10:54 PM,55.9,55.0,97,29.70,0.2,Calm,Calm,-,N/A,Fog,Fog,0,2013-11-02 02:54:00
11:54 PM,55.9,54.0,93,29.67,0.2,Calm,Calm,-,N/A,Fog,Fog,0,2013-11-02 03:54:00